CW7448 Weather Reports


Display with metric or nautical units.
time (UTC)temp
F
wind
direction
speed
MPH
gust
MPH
rain 1hr
in
rain 24hr
in
rain mn
in
humidity
%
barometer
mb
20260502180503 53 242 2.0 6.0 0.00 0.04 0.04 88 1010.1
20260502170508 51 71 1.0 4.0 0.02 0.04 0.04 90 1010.8
20260502164004 51 294 0.0 2.0 0.02 0.03 0.03 88 1010.9
20260502163504 51 243 1.0 2.0 0.02 0.03 0.03 88 1010.9
20260502163004 51 313 0.0 3.0 0.02 0.03 0.03 87 1010.9
20260502162507 51 350 1.0 3.0 0.01 0.02 0.02 88 1011.0
20260502162006 51 242 0.0 1.0 0.01 0.02 0.02 87 1011.1
20260502161503 51 315 0.0 2.0 0.01 0.02 0.02 86 1011.1
20260502161006 51 322 0.0 2.0 0.01 0.02 0.02 86 1011.2
20260502160506 52 261 0.0 2.0 0.01 0.02 0.02 86 1011.1
20260502152003 52 267 0.0 4.0 0.00 0.01 0.01 80 1011.5
20260502151509 52 233 0.0 4.0 0.00 0.01 0.01 82 1011.5
20260502151004 52 9 1.0 3.0 0.00 0.01 0.01 81 1011.4
20260502150505 52 304 0.0 5.0 0.00 0.01 0.01 81 1011.3
20260502130507 49 208 1.0 4.0 0.01 0.01 0.01 92 1011.5
20260502123505 47 220 0.0 1.0 0.01 0.01 0.01 91 1011.7
20260502123018 47 220 0.0 3.0 0.01 0.01 0.01 91 1012.0
20260502122508 47 171 0.0 3.0 0.01 0.01 0.01 90 1012.1
20260502122008 47 128 0.0 4.0 0.01 0.01 0.01 90 1011.8
20260502121514 47 82 1.0 4.0 0.01 0.01 0.01 90 1011.7
20260502121005 47 40 1.0 3.0 0.01 0.01 0.01 89 1011.8
20260502120507 47 61 1.0 3.0 0.00 0.00 0.00 89 1011.9
20260502115505 47 342 1.0 3.0 0.00 0.00 0.00 90 1012.1
20260502115007 47 292 1.0 3.0 0.00 0.00 0.00 90 1012.0
20260502114525 47 329 0.0 3.0 0.00 0.00 0.00 90 1012.0
20260502114008 47 333 1.0 3.0 0.00 0.00 0.00 90 1011.9
20260502113504 47 347 0.0 3.0 0.00 0.00 0.00 91 1011.9
20260502113019 47 360 1.0 3.0 0.00 0.00 0.00 91 1011.8
20260502112503 46 5 0.0 4.0 0.00 0.00 0.00 91 1011.5
20260502112012 46 5 1.0 4.0 0.00 0.00 0.00 91 1011.7
20260502111520 46 277 0.0 0.0 0.00 0.00 0.00 91 1011.7
20260502111007 45 277 0.0 1.0 0.00 0.00 0.00 91 1011.5
20260502110507 45 277 0.0 1.0 0.00 0.00 0.00 92 1011.3
20260502110019 45 296 0.0 1.0 0.00 0.00 0.00 92 1011.3
20260502105509 45 196 0.0 2.0 0.00 0.00 0.00 92 1011.3
20260502105010 45 196 0.0 2.0 0.00 0.00 0.00 92 1011.5
20260502104535 45 190 0.0 0.0 0.00 0.00 0.00 92 1011.0
20260502104008 45 190 0.0 2.0 0.00 0.00 0.00 91 1011.0
20260502103511 45 190 0.0 2.0 0.00 0.00 0.00 91 1010.8
20260502103026 45 238 0.0 2.0 0.00 0.00 0.00 91 1011.0
20260502102506 44 270 0.0 0.0 0.00 0.00 0.00 91 1011.1
20260502102003 44 270 0.0 0.0 0.00 0.00 0.00 91 1011.2
20260502101508 44 270 0.0 0.0 0.00 0.00 0.00 91 1011.2
20260502101002 44 270 0.0 0.0 0.00 0.00 0.00 91 1011.0
20260502100502 44 274 0.0 0.0 0.00 0.00 0.00 91 1011.1
20260502091511 45 296 0.0 1.0 0.00 0.00 0.00 91 1010.7
20260502091005 45 296 0.0 1.0 0.00 0.00 0.00 90 1010.6
20260502090502 45 296 0.0 0.0 0.00 0.00 0.00 90 1010.5
20260502071508 46 338 0.0 1.0 0.00 0.00 0.00 84 1010.8
20260502071004 46 338 0.0 1.0 0.00 0.00 0.00 83 1010.8
20260502070504 46 338 0.0 0.0 0.00 0.00 0.00 83 1010.7
20260502070008 46 338 0.0 0.0 0.00 0.00 0.00 82 1010.8
20260502065504 46 338 0.0 0.0 0.00 0.00 0.00 82 1010.9
20260502065005 47 338 0.0 0.0 0.00 0.00 0.00 82 1010.9
20260502064516 47 338 0.0 1.0 0.00 0.00 0.00 82 1010.9
20260502064003 47 338 0.0 1.0 0.00 0.00 0.00 82 1010.8
20260502063507 47 338 0.0 1.0 0.00 0.00 0.00 81 1010.9
20260502063024 47 338 0.0 1.0 0.00 0.00 0.00 81 1010.9
20260502062507 47 338 0.0 1.0 0.00 0.00 0.00 81 1010.8
20260502062006 47 338 0.0 1.0 0.00 0.00 0.00 81 1011.0
20260502061520 47 338 0.0 1.0 0.00 0.00 0.00 81 1011.1
20260502061006 47 344 0.0 0.0 0.00 0.00 0.00 80 1011.2
20260502060507 47 344 0.0 0.0 0.00 0.00 0.00 80 1011.2
20260502060015 47 344 0.0 0.0 0.00 0.00 0.00 79 1011.3
20260502055506 47 344 0.0 0.0 0.00 0.00 0.00 80 1011.3
20260502055006 47 344 0.0 2.0 0.00 0.00 0.00 80 1011.2
20260502054512 47 344 0.0 2.0 0.00 0.00 0.00 80 1011.3
20260502054003 47 348 0.0 2.0 0.00 0.00 0.00 80 1011.2
20260502053503 47 348 0.0 2.0 0.00 0.00 0.00 80 1011.4
20260502053018 47 348 0.0 2.0 0.00 0.00 0.00 80 1011.4
20260502052506 47 340 0.0 2.0 0.00 0.00 0.00 80 1011.3
20260502052007 47 340 0.0 3.0 0.00 0.00 0.00 79 1011.4
20260502051526 47 340 0.0 3.0 0.00 0.00 0.00 78 1011.3
20260502051008 48 352 0.0 2.0 0.00 0.00 0.00 78 1011.4
20260502050507 48 9 0.0 3.0 0.00 0.00 0.00 78 1011.4
20260502050020 48 9 1.0 3.0 0.00 0.00 0.00 78 1011.5
20260502045507 47 351 0.0 3.0 0.00 0.00 0.00 78 1011.5
20260502045007 47 360 1.0 3.0 0.00 0.00 0.00 78 1011.6
20260502044521 47 327 0.0 2.0 0.00 0.00 0.00 79 1011.6
20260502044007 47 324 0.0 2.0 0.00 0.00 0.00 78 1011.6
20260502043507 48 324 0.0 1.0 0.00 0.00 0.00 77 1011.4
20260502043016 48 324 0.0 1.0 0.00 0.00 0.00 77 1011.5
20260502042504 48 324 0.0 2.0 0.00 0.00 0.00 76 1011.5
20260502042007 48 324 0.0 2.0 0.00 0.00 0.00 75 1011.4
20260502041517 48 335 0.0 1.0 0.00 0.00 0.00 75 1011.5
20260502041007 48 335 0.0 1.0 0.00 0.00 0.00 76 1011.5
20260502040506 48 335 0.0 2.0 0.00 0.00 0.00 75 1011.6
20260502040032 48 335 0.0 2.0 0.00 0.00 0.00 74 1011.7
20260502035504 48 335 0.0 0.0 0.00 0.00 0.00 74 1011.7
20260502035011 48 335 0.0 1.0 0.00 0.00 0.00 74 1011.7
20260502034505 49 335 0.0 2.0 0.00 0.00 0.00 73 1011.6
20260502034003 49 335 1.0 2.0 0.00 0.00 0.00 73 1011.5
20260502033504 49 335 0.0 2.0 0.00 0.00 0.00 73 1011.6
20260502033006 49 335 0.0 2.0 0.00 0.00 0.00 72 1011.6
20260502032504 49 312 0.0 1.0 0.00 0.00 0.00 72 1011.6
20260502032006 49 313 0.0 2.0 0.00 0.00 0.00 72 1011.6
20260502031516 49 319 0.0 2.0 0.00 0.00 0.00 72 1011.6
20260502031004 49 338 0.0 2.0 0.00 0.00 0.00 72 1011.7
20260502030504 49 333 0.0 2.0 0.00 0.00 0.00 72 1011.7
20260502030020 49 305 0.0 2.0 0.00 0.00 0.00 72 1011.8
20260502025504 49 337 0.0 2.0 0.00 0.00 0.00 71 1011.8
20260502025003 49 337 0.0 3.0 0.00 0.00 0.00 72 1011.8
20260502024514 49 348 1.0 3.0 0.00 0.00 0.00 72 1011.8
20260502024003 50 342 1.0 5.0 0.00 0.00 0.00 72 1011.8
20260502023503 50 346 1.0 5.0 0.00 0.00 0.00 70 1011.7
20260502023009 50 343 1.0 4.0 0.00 0.00 0.00 70 1011.6
20260502022504 50 217 0.0 4.0 0.00 0.00 0.00 69 1011.5
20260502022002 50 270 0.0 4.0 0.00 0.00 0.00 69 1011.6
20260502021508 50 350 0.0 6.0 0.00 0.00 0.00 68 1011.6
20260502021004 51 344 1.0 6.0 0.00 0.00 0.00 67 1011.7
20260502020504 50 97 1.0 4.0 0.00 0.00 0.00 68 1011.7
20260502020004 50 272 1.0 4.0 0.00 0.00 0.00 66 1011.7
20260502015504 50 292 1.0 3.0 0.00 0.00 0.00 67 1011.7
20260502015003 50 343 0.0 3.0 0.00 0.00 0.00 67 1011.7
20260502014532 50 333 1.0 3.0 0.00 0.00 0.00 66 1011.7
20260502014002 50 348 1.0 3.0 0.00 0.00 0.00 64 1011.6
20260502013504 50 345 0.0 2.0 0.00 0.00 0.00 63 1011.6
20260502013018 51 345 0.0 2.0 0.00 0.00 0.00 61 1011.6
20260502012504 51 345 0.0 3.0 0.00 0.00 0.00 59 1011.5
20260502012002 51 345 1.0 3.0 0.00 0.00 0.00 59 1011.5
20260502011507 51 346 0.0 4.0 0.00 0.00 0.00 58 1011.4
20260502011001 52 350 1.0 4.0 0.00 0.00 0.00 58 1011.3
20260502010501 52 300 1.0 5.0 0.00 0.00 0.00 57 1011.2
20260502010010 52 360 2.0 8.0 0.00 0.00 0.00 59 1011.1
20260502005503 52 360 2.0 8.0 0.00 0.00 0.00 57 1011.1
20260502005007 52 360 1.0 3.0 0.00 0.00 0.00 57 1011.1
20260502004508 52 316 0.0 2.0 0.00 0.00 0.00 55 1010.9
20260502004008 52 316 1.0 2.0 0.00 0.00 0.00 55 1010.8
20260502003513 51 344 1.0 2.0 0.00 0.00 0.00 56 1010.7
20260502003027 51 344 1.0 3.0 0.00 0.00 0.00 56 1010.5
20260502002502 51 344 0.0 3.0 0.00 0.00 0.00 58 1010.4
20260502002009 51 347 1.0 2.0 0.00 0.00 0.00 61 1010.3
20260502001522 51 313 1.0 2.0 0.00 0.00 0.00 56 1010.3
20260502001002 52 295 0.0 2.0 0.00 0.00 0.00 55 1010.2
20260502000505 53 352 0.0 2.0 0.00 0.00 0.00 57 1010.1
20260502000007 53 352 0.0 2.0 0.00 0.00 0.00 54 1010.0
20260501235504 54 352 0.0 1.0 0.00 0.00 0.00 52 1009.9
20260501235002 54 352 0.0 1.0 0.00 0.00 0.00 48 1009.9
20260501234513 55 339 0.0 0.0 0.00 0.00 0.00 50 1009.9
20260501234008 55 5 0.0 1.0 0.00 0.00 0.00 48 1009.8
20260501233505 56 5 0.0 1.0 0.00 0.00 0.00 47 1009.7
20260501233012 56 5 0.0 1.0 0.00 0.00 0.00 46 1009.8
20260501232506 57 5 0.0 3.0 0.00 0.00 0.00 47 1009.7
20260501232009 57 5 0.0 3.0 0.00 0.00 0.00 45 1009.7
20260501231513 58 346 0.0 4.0 0.00 0.00 0.00 45 1009.6
20260501231008 58 346 1.0 4.0 0.00 0.00 0.00 43 1009.4
20260501230505 58 352 0.0 5.0 0.00 0.00 0.00 43 1009.4
20260501230026 59 352 1.0 6.0 0.00 0.00 0.00 42 1009.3
20260501225502 59 27 3.0 7.0 0.00 0.00 0.00 41 1009.2
20260501225007 60 343 2.0 7.0 0.00 0.00 0.00 43 1009.3
20260501224527 60 5 1.0 5.0 0.00 0.00 0.00 41 1009.2
20260501224008 60 45 1.0 4.0 0.00 0.00 0.00 43 1009.2
20260501223503 60 360 1.0 3.0 0.00 0.00 0.00 43 1009.1
20260501223012 60 352 1.0 3.0 0.00 0.00 0.00 42 1009.1
20260501222507 60 340 0.0 2.0 0.00 0.00 0.00 43 1009.0
20260501222007 60 50 0.0 5.0 0.00 0.00 0.00 44 1009.1
20260501221516 60 327 1.0 5.0 0.00 0.00 0.00 42 1009.1
20260501221014 60 360 1.0 5.0 0.00 0.00 0.00 41 1009.1
20260501220515 61 343 2.0 5.0 0.00 0.00 0.00 38 1009.2
20260501220021 61 279 2.0 4.0 0.00 0.00 0.00 38 1009.3
20260501215507 61 5 1.0 6.0 0.00 0.00 0.00 39 1009.2
20260501215012 62 334 1.0 6.0 0.00 0.00 0.00 40 1009.1
20260501214529 62 334 2.0 4.0 0.00 0.00 0.00 41 1009.1
20260501214005 62 43 1.0 6.0 0.00 0.00 0.00 39 1009.0
20260501213508 62 48 1.0 6.0 0.00 0.00 0.00 39 1009.0
20260501213027 62 34 2.0 5.0 0.00 0.00 0.00 37 1008.9
20260501212502 63 76 0.0 5.0 0.00 0.00 0.00 36 1008.9
20260501212002 62 16 1.0 11.0 0.00 0.00 0.00 37 1008.9
20260501211503 63 352 3.0 11.0 0.00 0.00 0.00 36 1009.0
20260501211002 63 317 2.0 7.0 0.00 0.00 0.00 43 1008.9
20260501210502 63 304 2.0 9.0 0.00 0.00 0.00 36 1008.9
20260501210005 63 5 2.0 12.0 0.00 0.00 0.00 41 1008.8
20260501205504 63 339 3.0 12.0 0.00 0.00 0.00 37 1008.8
20260501205002 63 15 1.0 10.0 0.00 0.00 0.00 40 1008.8
20260501204504 64 338 3.0 8.0 0.00 0.00 0.00 37 1008.9
20260501204003 64 360 1.0 6.0 0.00 0.00 0.00 36 1008.7
20260501203503 64 320 2.0 6.0 0.00 0.00 0.00 37 1008.9
20260501203007 63 25 1.0 7.0 0.00 0.00 0.00 36 1008.9
20260501202502 63 55 2.0 9.0 0.00 0.00 0.00 38 1008.7
20260501202002 63 53 3.0 9.0 0.00 0.00 0.00 36 1008.8
20260501201502 63 325 3.0 8.0 0.00 0.00 0.00 39 1008.7
20260501201002 63 312 3.0 11.0 0.00 0.00 0.00 37 1008.7
20260501200502 63 80 3.0 11.0 0.00 0.00 0.00 39 1008.8
20260501200008 64 28 2.0 7.0 0.00 0.00 0.00 41 1008.8
20260501195502 63 320 2.0 7.0 0.00 0.00 0.00 36 1008.7
20260501195003 63 323 1.0 9.0 0.00 0.00 0.00 38 1008.8
20260501194504 63 16 3.0 9.0 0.00 0.00 0.00 40 1008.9
20260501194003 63 344 3.0 8.0 0.00 0.00 0.00 42 1009.0
20260501193459 63 49 2.0 8.0 0.00 0.00 0.00 38 1009.0
20260501193005 63 42 3.0 8.0 0.00 0.00 0.00 36 1009.1
20260501192505 63 67 3.0 8.0 0.00 0.00 0.00 39 1009.1
20260501192004 63 58 3.0 8.0 0.00 0.00 0.00 36 1009.1
20260501191503 64 323 3.0 8.0 0.00 0.00 0.00 39 1009.1
20260501191003 63 335 3.0 7.0 0.00 0.00 0.00 41 1009.1
20260501190503 63 56 4.0 8.0 0.00 0.00 0.00 43 1009.2
20260501190003 63 341 4.0 11.0 0.00 0.00 0.00 39 1009.3
20260501185501 62 297 4.0 11.0 0.00 0.00 0.00 42 1009.3
20260501185002 60 346 3.0 10.0 0.00 0.00 0.00 43 1009.3
20260501184510 61 352 1.0 8.0 0.00 0.00 0.00 45 1009.3
20260501184003 61 5 3.0 8.0 0.00 0.00 0.00 44 1009.4
20260501183503 62 324 2.0 6.0 0.00 0.00 0.00 43 1009.5
20260501183004 61 333 2.0 7.0 0.00 0.00 0.00 43 1009.5
20260501182503 60 342 2.0 10.0 0.00 0.00 0.00 46 1009.5
20260501182007 61 36 3.0 12.0 0.00 0.00 0.00 41 1009.5
20260501181505 61 352 3.0 12.0 0.00 0.00 0.00 47 1009.4
20260501181005 61 352 5.0 10.0 0.00 0.00 0.00 45 1009.5